TUBIN

decayed
NORAD ID: 48900 Int'l Des: 2021-059 Owner: TUB Country: D
LEOCIRCULARRETROGRADE

TUBINについて

説明を読み込み中...

高度履歴

Altitude vs Time

uPlot chart will show altitude changes over time

軌道要素

1 48900U 21059X 25349.78845228 .07315651 27141-5 56139-3 0 9990
2 48900 97.6553 178.8839 0007270 265.1302 94.9166 16.40417761249824
Epoch: Dec 15, 2025 • Age: 1858 hours

現在のステータス

Position data unavailable
打ち上げ日 Jun 30, 2021
運用期間 4.6 years
落下予定日 Dec 16, 2025
タイプ other

技術仕様

分類 Payload
質量 17.00 kg
乾燥質量 17.00 kg
総質量 17.00 kg
長さ 0.30 m
直径 0.50 m
スパン 0.50 m
形状 Oct cyl
製造者 TUB
バスタイプ TUBix20
フェーズステータス Reentered
所有者/国 TUB/D

大規模コンステレーション

Loading constellations...